{"data":{"norad_id":57499,"intl_designator":"2023-113E","name":"STARLINK-30169","alt_names":[],"object_type":"PAYLOAD","status":"ACTIVE","operator":null,"country":"US","launch_date":"2023-08-07","launch_site_code":"AFETR","launch_vehicle":null,"mission":null,"orbit_class":"UNKNOWN","rcs_meters":null,"size_class":null,"mass_kg":null,"dimensions":null,"purposes":["comms"],"wikipedia_slug":null,"has_3d_model":false,"image_url":null,"decayed_at":null,"tle_current":{"epoch":"2026-05-24T19:23:06.903456Z","epoch_age_seconds":88501,"freshness":"FRESH","line1":"1 57499U 23113E   26144.80771879  .00000462  00000+0  26332-4 0  9999","line2":"2 57499  43.0047 292.0139 0001996 263.0680  96.9944 15.27570923155328","mean_motion":15.27570923,"eccentricity":0.0001996,"inclination_deg":43.0047,"raan_deg":292.0139,"arg_perigee_deg":263.068,"mean_anomaly_deg":96.9944,"bstar":2.6332e-5,"rev_number":15532,"period_min":94.267308857384,"perigee_km":481.70677780779,"apogee_km":484.44577414756,"semimajor_km":6861.2132759777,"source":"CELESTRAK","updated_at":"2026-05-25T13:38:18.327706Z"}}}